Home   Weather   Mali i Gjalicës   Past weeks
Flag for Albania

Past Weather in Mali i Gjalicës, Albania — Yesterday and Last 2 Weeks

Now
81 °F

Sunny.


Feels Like: 83 °F
Forecast: 87 / 64 °F
Wind: 1 mph from North

Location: Tirana Airport

Current Time: Jun 19, 2019 at 9:47:39 am

Latest Report: Jun 19, 2019 at 9:20 am


Visibility: 10 mi

Pressure: 29.92 "Hg

Humidity: 62%

Dew Point: 66 °F

Location of Mali i GjalicësLocation

Past Weather in Mali i Gjalicës — Graph

°F

Mali i Gjalicës Temperature Yesterday

Maximum temperature yesterday: 90 °F (at 12:20 pm)
Minimum temperature yesterday: 70 °F (at 2:50 am)
Average temperature yesterday: 78 °F

High & Low Weather Summary for the Past Weeks

 TemperatureHumidityPressure
High97 °F (Jun 15, 1:20 pm)94% (Jun 5, 5:20 am)30.12 "Hg (Jun 5, 5:20 am)
Low61 °F (Jun 6, 4:50 am)36% (Jun 8, 4:50 pm)29.80 "Hg (Jun 10, 5:20 pm)
Average77 °F70%29.95 "Hg
* Reported Jun 4 7:20 am — Jun 19 7:50 am, Mali i Gjalicës. Weather by CustomWeather, © 2019

Note: Actual official high and low records may vary slightly from our data, if they occured in-between our weather recording intervals... More about our weather records

Advertising

Mali i Gjalicës Weather History for the Previous 24 Hours

Scroll right to see more
 ConditionsComfort  
Time TempWeatherWind HumidityBarometerVisibility
7:50 am
Wed, Jun 19
77 °FSunny.6 mph69%29.92 "Hg10 mi
7:20 am73 °FSunny.3 mph83%29.92 "Hg10 mi
6:50 am73 °FSunny.2 mph83%29.92 "Hg10 mi
6:20 am70 °FSunny.3 mph94%29.92 "Hg10 mi
5:20 am68 °FSunny.3 mph94%29.92 "Hg10 mi
4:50 am68 °FClear.1 mph94%29.92 "Hg10 mi
4:20 am70 °FClear.5 mph88%29.92 "Hg10 mi
3:50 am68 °FClear.2 mph94%29.92 "Hg10 mi
3:20 am68 °FClear.2 mph94%29.92 "Hg10 mi
2:50 am70 °FClear.No wind88%29.92 "Hg10 mi
2:20 am70 °FClear.No wind94%29.92 "Hg10 mi
1:50 am72 °FPassing clouds.3 mph88%29.92 "HgN/A
1:20 am72 °FClear.2 mph88%29.95 "Hg10 mi
12:20 am73 °FClear.3 mph83%29.95 "Hg10 mi
11:50 pm
Tue, Jun 18
73 °FClear.3 mph83%29.95 "Hg10 mi
11:20 pm73 °FClear.3 mph89%29.95 "Hg10 mi
10:50 pm73 °FPassing clouds.5 mph89%29.95 "HgN/A
10:20 pm73 °FPassing clouds.3 mph89%29.95 "HgN/A
9:50 pm75 °FClear.1 mph83%29.95 "Hg10 mi
9:20 pm75 °FClear.2 mph83%29.95 "Hg10 mi
8:50 pm77 °FPassing clouds.3 mph79%29.92 "HgN/A
8:20 pm77 °FClear.2 mph79%29.92 "Hg10 mi
7:50 pm79 °FSunny.6 mph70%29.92 "Hg10 mi
7:20 pm79 °FPassing clouds.8 mph70%29.92 "HgN/A
6:50 pm81 °FPassing clouds.8 mph66%29.92 "HgN/A
6:20 pm81 °FPassing clouds.6 mph66%29.92 "HgN/A
5:50 pm82 °FPassing clouds.5 mph66%29.92 "HgN/A
5:20 pm81 °FPassing clouds.7 mph62%29.89 "HgN/A
4:50 pm82 °FScattered clouds.6 mph58%29.92 "HgN/A
4:20 pm84 °FScattered clouds.6 mph55%29.89 "HgN/A
3:50 pm86 °FPassing clouds.8 mph52%29.89 "HgN/A
3:20 pm86 °FPassing clouds.8 mph52%29.89 "HgN/A
2:50 pm88 °FPassing clouds.9 mph52%29.92 "HgN/A
2:20 pm88 °FPassing clouds.7 mph52%29.92 "HgN/A
1:50 pm86 °FPassing clouds.8 mph55%29.92 "Hg6 mi
1:20 pm90 °FScattered clouds.7 mph59%29.92 "HgN/A
12:20 pm90 °FPassing clouds.5 mph59%29.92 "Hg6 mi
11:50 am86 °FPassing clouds.3 mph55%29.92 "HgN/A
11:20 am86 °FPassing clouds.3 mph59%29.92 "HgN/A
10:50 am84 °FPassing clouds.5 mph58%29.95 "HgN/A
10:20 am82 °FSunny.3 mph62%29.95 "Hg10 mi
9:50 am82 °FPassing clouds.3 mph62%29.95 "HgN/A
9:20 am82 °FSunny.No wind55%29.95 "Hg10 mi
Weather by CustomWeather, © 2019

See weather overview